Location: Jaite
(41.2884°N, 81.5737°W)
Time: 12:14:52
(UTC+00:00)

SJ 16-02 - Pass Details

Date: 15 November 2025
Orbit: 585 x 594 km, 75.0° (Epoch: 11 December)

Event Time Altitude Azimuth Distance (km) Brightness Sun altitude
Exits shadow 10:17:34 32° 351° (N) 1,019 2.3 -22.0°
Maximum altitude 10:19:29 76° 71° (ENE) 611 1.3 -21.7°
Drops below altitude 10° 10:23:43 10° 158° (SSE) 1,905 4.2 -20.9°
Sets 10:25:56 0° 160° (SSE) 2,799 5.1 -20.5°
